TimeCDT,TemperatureF,Dew PointF,Humidity,Sea Level PressureIn,VisibilityMPH,Wind Direction,Wind SpeedMPH,Gust SpeedMPH,PrecipitationIn,Events,Conditions,WindDirDegrees,DateUTC
12:53 AM,57.0,52.0,83,29.94,10.0,Calm,Calm,-,N/A,,Clear,0,2012-11-02 05:53:00
1:53 AM,55.0,51.1,86,29.94,10.0,Calm,Calm,-,N/A,,Clear,0,2012-11-02 06:53:00
2:53 AM,55.0,50.0,83,29.94,10.0,South,3.5,-,N/A,,Clear,170,2012-11-02 07:53:00
3:53 AM,54.0,50.0,86,29.94,10.0,Calm,Calm,-,N/A,,Clear,0,2012-11-02 08:53:00
4:53 AM,53.1,48.9,86,29.94,10.0,South,3.5,-,N/A,,Clear,170,2012-11-02 09:53:00
5:53 AM,53.1,48.0,83,29.96,10.0,Calm,Calm,-,N/A,,Clear,0,2012-11-02 10:53:00
6:53 AM,53.1,46.9,80,29.96,10.0,Calm,Calm,-,N/A,,Clear,0,2012-11-02 11:53:00
7:53 AM,52.0,46.9,83,29.99,10.0,Calm,Calm,-,N/A,,Clear,0,2012-11-02 12:53:00
8:53 AM,57.0,51.1,81,30.00,10.0,Calm,Calm,-,N/A,,Clear,0,2012-11-02 13:53:00
9:53 AM,70.0,55.0,59,30.01,10.0,SW,6.9,-,N/A,,Clear,230,2012-11-02 14:53:00
10:53 AM,77.0,57.0,50,30.01,10.0,WSW,12.7,-,N/A,,Clear,240,2012-11-02 15:53:00
11:53 AM,80.1,57.0,45,30.01,10.0,SW,11.5,-,N/A,,Clear,230,2012-11-02 16:53:00
12:53 PM,82.0,57.0,42,29.98,10.0,SSW,16.1,-,N/A,,Clear,210,2012-11-02 17:53:00
1:53 PM,82.9,55.9,39,29.95,10.0,SSW,16.1,23.0,N/A,,Clear,210,2012-11-02 18:53:00
2:53 PM,86.0,50.0,29,29.92,10.0,South,18.4,21.9,N/A,,Clear,190,2012-11-02 19:53:00
3:53 PM,86.0,48.9,28,29.91,10.0,SSW,13.8,19.6,N/A,,Clear,200,2012-11-02 20:53:00
4:53 PM,84.9,46.9,27,29.90,10.0,South,11.5,20.7,N/A,,Clear,190,2012-11-02 21:53:00
5:53 PM,82.0,45.0,27,29.90,10.0,South,12.7,-,N/A,,Clear,180,2012-11-02 22:53:00
6:53 PM,77.0,46.9,34,29.91,10.0,SSE,9.2,-,N/A,,Clear,160,2012-11-02 23:53:00
7:53 PM,70.0,48.9,47,29.93,10.0,SSE,8.1,-,N/A,,Clear,160,2012-11-03 00:53:00
8:53 PM,70.0,51.1,51,29.94,10.0,South,9.2,-,N/A,,Clear,170,2012-11-03 01:53:00
9:53 PM,69.1,52.0,54,29.94,10.0,South,10.4,-,N/A,,Clear,180,2012-11-03 02:53:00
10:53 PM,66.0,53.1,63,29.95,10.0,South,8.1,-,N/A,,Clear,180,2012-11-03 03:53:00
11:53 PM,66.0,54.0,65,29.94,10.0,South,9.2,-,N/A,,Clear,180,2012-11-03 04:53:00